Weather History for Blakely, GA

Change the Weather History Date:

Friday, February 8, 2013

  Actual Average (KDHN) Record (KDHN)
Temperature  
Mean Temperature 58 °F 52 °F  
Max Temperature 66 °F 63 °F 131 °F (2000)
Min Temperature 51 °F 40 °F 23 °F (1951)
Degree Days  
Heating Degree Days 6 14  
Month to date heating degree days 115  
Since 1 July heating degree days 1331  
Growing Degree Days 8 (Base 50)    
Moisture  
Dew Point 53 °F    
Average Humidity 90    
Maximum Humidity 100    
Minimum Humidity 73    
Precipitation  
Precipitation 0.00 in 0.16 in 1.12 in (1949)
Month to date precipitation 1.16  
Year to date precipitation 5.79  
Sea Level Pressure  
Sea Level Pressure 30.04 in    
Wind  
Wind Speed 1 mph (NW)    
Max Wind Speed 8 mph    
Max Gust Speed -    
Visibility 10 miles    
Events      
T = Trace of Precipitation, MM = Missing Value Source: NWS Daily Summary

Daily Weather History Graph

Daily Weather History Graph

Search for Another Location

Airport:

Trip Planner

Search our weather history database for the weather conditions in past years. The results will help you decide how hot, cold, wet, or windy it might be!

Date:

Astronomy

Feb. 08, 2013 Rise Set
Actual Time 7:26 AM EST 6:21 PM EST
Civil Twilight 7:01 AM EST 6:46 PM EST
Nautical Twilight 6:33 AM EST 7:14 PM EST
Astronomical Twilight 6:04 AM EST 7:43 PM EST
Moon 5:51 AM EST (2/8) 4:55 PM EST (2/8)
Length of Visible Light 11h 44m
Length of Day
10h 54m
Waning Crescent, 3% of the Moon is Illuminated
Feb 8
Waning Crescent
Feb 10
New
Feb 17
First Quarter
Feb 25
Full
Mar 4
Last Quarter

Hourly Weather History & Observations

Time (EST) Temp. Dew Point Humidity Pressure Visibility Wind Dir Wind Speed Gust Speed Precip Events Conditions
12:15 AM 51.8 °F 51.8 °F 100% 29.95 in 10.0 mi Calm Calm - N/A   Overcast
12:35 AM 51.8 °F 51.8 °F 100% 29.95 in 10.0 mi Calm Calm - N/A   Overcast
12:55 AM 51.8 °F 51.8 °F 100% 29.95 in 10.0 mi Calm Calm - N/A   Overcast
1:15 AM 51.8 °F 51.8 °F 100% 29.95 in 10.0 mi Calm Calm - N/A   Overcast
1:35 AM 51.8 °F 51.8 °F 100% 29.95 in 10.0 mi Calm Calm - N/A   Overcast
1:55 AM 51.8 °F 51.8 °F 100% 29.95 in 10.0 mi Calm Calm - N/A   Overcast
2:15 AM 51.8 °F 51.8 °F 100% 29.96 in 10.0 mi Calm Calm - N/A   Overcast
2:35 AM 51.8 °F 51.8 °F 100% 29.96 in 10.0 mi Calm Calm - N/A   Overcast
2:55 AM 51.8 °F 51.8 °F 100% 29.96 in 10.0 mi Calm Calm - N/A   Overcast
3:15 AM 51.8 °F 51.8 °F 100% 29.96 in 10.0 mi Calm Calm - N/A   Overcast
3:35 AM 51.8 °F 50.0 °F 94% 29.96 in 10.0 mi Calm Calm - N/A   Overcast
3:55 AM 51.8 °F 50.0 °F 94% 29.96 in 10.0 mi Calm Calm - N/A   Overcast
4:35 AM 51.8 °F 50.0 °F 94% 29.97 in 10.0 mi Calm Calm - N/A   Overcast
4:55 AM 51.8 °F 50.0 °F 94% 29.97 in 10.0 mi Calm Calm - N/A   Overcast
5:15 AM 51.8 °F 50.0 °F 94% 29.97 in 10.0 mi Calm Calm - N/A   Overcast
5:35 AM 51.8 °F 51.8 °F 100% 29.97 in 10.0 mi Calm Calm - N/A   Overcast
5:55 AM 51.8 °F 51.8 °F 100% 29.98 in 10.0 mi Calm Calm - N/A   Overcast
6:15 AM 51.8 °F 51.8 °F 100% 29.99 in 10.0 mi Calm Calm - N/A   Overcast
6:35 AM 51.8 °F 51.8 °F 100% 30.00 in 10.0 mi Calm Calm - N/A   Overcast
7:15 AM 51.8 °F 51.8 °F 100% 30.02 in 7.0 mi Calm Calm - N/A   Overcast
7:35 AM 51.8 °F 51.8 °F 100% 30.02 in 7.0 mi Calm Calm - N/A   Overcast
7:55 AM 51.8 °F 51.8 °F 100% 30.02 in 10.0 mi Calm Calm - N/A   Overcast
8:15 AM 51.8 °F 51.8 °F 100% 30.04 in 7.0 mi Calm Calm - N/A   Overcast
8:35 AM 51.8 °F 51.8 °F 100% 30.04 in 7.0 mi Calm Calm - N/A   Overcast
8:55 AM 51.8 °F 51.8 °F 100% 30.04 in 7.0 mi Calm Calm - N/A   Overcast
9:15 AM 51.8 °F 51.8 °F 100% 30.04 in 10.0 mi Calm Calm - N/A   Overcast
9:35 AM 53.6 °F 51.8 °F 94% 30.05 in 10.0 mi Calm Calm - N/A   Overcast
9:55 AM 53.6 °F 51.8 °F 94% 30.05 in 10.0 mi Calm Calm - N/A   Overcast
10:15 AM 53.6 °F 51.8 °F 94% 30.05 in 10.0 mi Calm Calm - N/A   Overcast
10:35 AM 55.4 °F 53.6 °F 94% 30.05 in 10.0 mi Calm Calm - N/A   Overcast
10:55 AM 55.4 °F 53.6 °F 94% 30.06 in 10.0 mi West 3.5 mph - N/A   Overcast
11:15 AM 55.4 °F 53.6 °F 94% 30.07 in 10.0 mi WSW 3.5 mph - N/A   Overcast
11:35 AM 55.4 °F 53.6 °F 94% 30.08 in 10.0 mi West 3.5 mph - N/A   Overcast
11:55 AM 57.2 °F 53.6 °F 88% 30.08 in 10.0 mi West 5.8 mph - N/A   Overcast
12:15 PM 57.2 °F 53.6 °F 88% 30.07 in 10.0 mi NW 5.8 mph - N/A   Overcast
12:35 PM 59.0 °F 55.4 °F 88% 30.06 in 10.0 mi West 4.6 mph - N/A   Overcast
1:15 PM 60.8 °F 55.4 °F 82% 30.05 in 10.0 mi West 4.6 mph - N/A   Scattered Clouds
1:35 PM 62.6 °F 55.4 °F 77% 30.03 in 10.0 mi SW 3.5 mph - N/A   Mostly Cloudy
1:55 PM 62.6 °F 55.4 °F 77% 30.03 in 10.0 mi WSW 4.6 mph - N/A   Scattered Clouds
2:15 PM 64.4 °F 57.2 °F 77% 30.02 in 10.0 mi NW 6.9 mph - N/A   Scattered Clouds
2:35 PM 64.4 °F 55.4 °F 73% 30.02 in 10.0 mi West 3.5 mph - N/A   Scattered Clouds
2:55 PM 64.4 °F 57.2 °F 77% 30.03 in 10.0 mi WNW 4.6 mph - N/A   Mostly Cloudy
3:15 PM 64.4 °F 57.2 °F 77% 30.03 in 10.0 mi NW 5.8 mph - N/A   Overcast
3:35 PM 66.2 °F 57.2 °F 73% 30.03 in 10.0 mi NW 3.5 mph - N/A   Overcast
3:55 PM 64.4 °F 57.2 °F 77% 30.04 in 10.0 mi NNW 3.5 mph - N/A   Overcast
4:15 PM 64.4 °F 57.2 °F 77% 30.04 in 10.0 mi North 3.5 mph - N/A   Overcast
4:35 PM 66.2 °F 57.2 °F 73% 30.04 in 10.0 mi North 3.5 mph - N/A   Scattered Clouds
4:55 PM 64.4 °F 57.2 °F 77% 30.03 in 10.0 mi North 4.6 mph - N/A   Clear
5:15 PM 66.2 °F 57.2 °F 73% 30.04 in 10.0 mi North 6.9 mph - N/A   Clear
5:35 PM 64.4 °F 57.2 °F 77% 30.05 in 10.0 mi NNW 4.6 mph - N/A   Clear
5:55 PM 64.4 °F 57.2 °F 77% 30.05 in 10.0 mi Calm Calm - N/A   Scattered Clouds
6:35 PM 62.6 °F 57.2 °F 82% 30.07 in 10.0 mi North 6.9 mph - N/A   Mostly Cloudy
6:55 PM 60.8 °F 55.4 °F 82% 30.07 in 10.0 mi North 3.5 mph - N/A   Mostly Cloudy
7:15 PM 60.8 °F 55.4 °F 82% 30.08 in 10.0 mi Calm Calm - N/A   Mostly Cloudy
7:35 PM 60.8 °F 55.4 °F 82% 30.09 in 10.0 mi North 5.8 mph - N/A   Mostly Cloudy
7:55 PM 59.0 °F 55.4 °F 88% 30.10 in 10.0 mi North 3.5 mph - N/A   Clear
8:15 PM 59.0 °F 55.4 °F 88% 30.11 in 10.0 mi NNW 5.8 mph - N/A   Clear
8:35 PM 57.2 °F 53.6 °F 88% 30.12 in 10.0 mi NNW 6.9 mph - N/A   Scattered Clouds
8:55 PM 55.4 °F 53.6 °F 94% 30.12 in 10.0 mi NNW 4.6 mph - N/A   Scattered Clouds
9:15 PM 55.4 °F 53.6 °F 94% 30.12 in 10.0 mi North 3.5 mph - N/A   Mostly Cloudy
9:35 PM 55.4 °F 53.6 °F 94% 30.13 in 10.0 mi North 4.6 mph - N/A   Overcast
9:55 PM 55.4 °F 53.6 °F 94% 30.13 in 10.0 mi NNW 8.1 mph - N/A   Scattered Clouds
10:15 PM 55.4 °F 53.6 °F 94% 30.14 in 10.0 mi North 4.6 mph - N/A   Scattered Clouds
10:35 PM 55.4 °F 53.6 °F 94% 30.15 in 10.0 mi North 4.6 mph - N/A   Overcast
10:55 PM 55.4 °F 51.8 °F 88% 30.15 in 10.0 mi North 5.8 mph - N/A   Overcast
11:15 PM 55.4 °F 51.8 °F 88% 30.16 in 10.0 mi North 5.8 mph - N/A   Overcast
11:35 PM 55.4 °F 51.8 °F 88% 30.16 in 10.0 mi Calm Calm - N/A   Scattered Clouds
11:55 PM 53.6 °F 51.8 °F 94% 30.16 in 10.0 mi Calm Calm - N/A   Clear